Regional Weather Roundup
Issued by NWS

Home | Current Version | Previous Version | Graphics & Text | Print | Product List | Glossary On
Versions: 1 2 3 4 5 6 7 8 9 10 11 12 13 14 15 16 17 18 19 20 21 22 23 24 25 26 27 28 29 30 31 32 33 34 35 36 37 38 39 40 41 42 43 44 45 46 47 48 49 50
000
ASUS43 KMPX 232010
RWRMN
WEATHER ROUNDUP FOR MINNESOTA
NATIONAL WEATHER SERVICE TWIN CITIES/CHANHASSEN MN
200 PM CST THU FEB 23 2017


NOTE: "FAIR" INDICATES FEW OR NO CLOUDS BELOW 12,000 FEET WITH NO
SIGNIFICANT WEATHER AND/OR OBSTRUCTIONS TO VISIBILITY. N/A MEANS
CURRENT SKY AND/OR WEATHER CONDITIONS ARE NOT AVAILABLE.

MNZ060>063-068>070-232100-
   Twin Cities Metro

CITY           SKY/WX    TMP DP  RH WIND       PRES   REMARKS
TWIN CITIES    CLOUDY    36  22  56 NE13G24   29.90F
ST PAUL        CLOUDY    35  25  66 N13       29.91F WCI  26
CRYSTAL        CLOUDY    32  21  64 N15       29.91S WCI  22
BLAINE         CLOUDY    34  27  75 N12G18    29.92S WCI  25
LAKEVILLE      CLOUDY    36  27  69 N12       29.88S
EDEN PRAIRIE   CLOUDY    35  24  64 N9        29.88F WCI  28
SOUTH ST PAUL  CLOUDY    37  25  61 N12       29.90S
LAKE ELMO      FAIR      36  28  75 N12       29.90F
$$
MNZ001>005-007-008-013>017-022>024-027-028-232100-
   Northwest Minnesota

CITY           SKY/WX    TMP DP  RH WIND       PRES   REMARKS
BEMIDJI        MOSUNNY   27  17  67 NW8       29.97F WCI  18
HALLOCK        CLOUDY    25  16  68 N17       30.08S WCI  11
ROSEAU         CLOUDY    25  16  68 N13       30.03F WCI  13
WARROAD        PTSUNNY   23  12  63 NW13      30.03F WCI  11
THIEF RVR FALL CLOUDY    26  17  68 N15       30.04S WCI  14
CROOKSTON      CLOUDY    27  19  74 N16G22    30.07R WCI  14
FOSSTON        CLOUDY    25  19  80 N13       30.02S WCI  13
DETROIT LAKES  CLOUDY    28  23  80 N6G18     30.00S WCI  22
MOORHEAD       CLOUDY    28  21  74 N15G24    30.04R WCI  17
PARK RAPIDS    PTSUNNY   28  17  63 N12       29.96S WCI  18
MAHNOMEN         N/A     26  20  77 N14       30.01R WCI  15
$$
MNZ006-009>011-018-025>026-232100-
   North Central Minnesota

CITY           SKY/WX    TMP DP  RH WIND       PRES   REMARKS
BAUDETTE       CLOUDY    22  12  65 NW15      30.00F WCI   9
FLAG ISLAND    SUNNY     21   9  58 NW20      30.01S WCI   6
INTL FALLS     SUNNY     25  11  55 NW14      29.96F WCI  13
WASKISH        MOSUNNY   27  14  59 NW9       30.00R WCI  17
BIG FORK       SUNNY     28  12  50 N6        29.95S WCI  22
LONGVILLE      CLOUDY    27  19  74 N5        29.97S WCI  21
GRAND RAPIDS   CLOUDY    27  19  72 NW8       29.97F WCI  19
CRANE LAKE     SUNNY     25   9  50 N12       29.96F WCI  14
ORR            SUNNY     27  10  50 CALM      29.91F
COOK           SUNNY     28  14  54 W8        29.94S WCI  20
WALKER         FAIR      26  17  68 NW6       29.98R WCI  19
$$
MNZ012-019>021-037-232100-
   Northeast Minnesota

CITY           SKY/WX    TMP DP  RH WIND       PRES   REMARKS
DULUTH         CLOUDY    28  22  78 N9        29.91F WCI  19
ELY            SUNNY     28  12  50 N6        29.90S WCI  22
HIBBING        CLOUDY    25  19  78 NW10      29.93F WCI  15
EVELETH        MOSUNNY   28  18  68 NW7       29.93S WCI  20
DULUTH HARBOR  CLOUDY    30  25  80 CALM      29.97F
TWO HARBORS    PTSUNNY   34  25  69 W5        29.90F WCI  30
SILVER BAY     MOSUNNY   36  23  60 W3        29.89F
GRAND MARAIS     N/A     38  18  44 SW12      29.88F
G MARAIS ARPRT SUNNY     30  10  43 W7        29.84S WCI  23
$$
MNZ029>031-032-039>041-046>048-054>057-064-232100-
   West Central Minnesota

CITY           SKY/WX    TMP DP  RH WIND       PRES   REMARKS
FERGUS FALLS   CLOUDY    28  21  74 N13       30.03S WCI  18
WHEATON        CLOUDY    28  21  74 N15       30.01S WCI  17
MORRIS         CLOUDY    30  25  80 N12       29.95F WCI  21
ALEXANDRIA     CLOUDY    29  23  78 N10       29.95F WCI  20
ELBOW LAKE     PTSUNNY   28  22  79 E9        29.98S WCI  19
WADENA         CLOUDY    27  19  74 N9        29.96S WCI  17
GLENWOOD       CLOUDY    30  25  80 NE13      29.95F WCI  20
APPLETON       CLOUDY    32  25  74 NE14      29.95F WCI  22
BENSON         CLOUDY    34  21  60 NE12      29.97F WCI  25
ORTONVILLE     CLOUDY    30  21  69 N14       29.96F WCI  20
MADISON        CLOUDY    36  28  75 N16       29.94F
WILLMAR        FAIR      30  27  86 NE12      29.95S WCI  21
$$
MNZ033>034-036-042>043-049>051-058-059-232100-
   Central Minnesota

CITY           SKY/WX    TMP DP  RH WIND       PRES   REMARKS
ST CLOUD       CLOUDY    29  22  75 NE6       29.95S WCI  23
SAUK CENTRE    MOCLDY    29  22  74 N8        29.95S WCI  21
PAYNESVILLE    PTSUNNY   29  24  80 N12G17    29.94S WCI  19
AITKIN         CLOUDY    28  21  74 N8        29.94F WCI  20
PINE RIVER     CLOUDY    27  19  74 N8        30.00S WCI  18
BRAINERD       PTSUNNY   28  21  75 N8        29.96F WCI  20
STAPLES        CLOUDY    27  19  74 N9        29.96S WCI  17
LONG PRAIRIE   PTSUNNY   30  23  74 NW10      29.95S WCI  21
LITTLE FALLS   PTSUNNY   30  23  74 N5        29.96S WCI  25
LITCHFIELD     CLOUDY    30  25  80 NE12      29.93F WCI  21
BUFFALO        CLOUDY    30  23  75 N12       29.94S WCI  21
MAPLE LAKE     CLOUDY    30  25  80 N14       29.94F WCI  20
HUTCHINSON     CLOUDY    32  26  80 N8G18     29.92F WCI  25
$$
MNZ037-044-045-052-053-232100-
   East Central Minnesota

CITY           SKY/WX    TMP DP  RH WIND       PRES   REMARKS
PRINCETON      CLOUDY    30  23  74 N8        29.95F WCI  23
MORA           CLOUDY    30  23  74 N3        29.97S
CAMBRIDGE      CLOUDY    30  21  69 N8        29.93F WCI  23
RUSH CITY      CLOUDY    30  23  74 N9        29.94F WCI  22
MOOSE LAKE     CLOUDY    30  23  74 N7        29.93F WCI  23
HINCKLEY       CLOUDY    30  27  86 NW9       29.95F WCI  22
CLOQUET        CLOUDY    28  21  74 NW8       29.93F WCI  20
MCGREGOR       CLOUDY    28  23  80 N7        29.96S WCI  21
$$
MNZ071>073-080-081-089-090-097-098-232100-
   Southwest Minnesota

CITY           SKY/WX    TMP DP  RH WIND       PRES   REMARKS
MONTEVIDEO     CLOUDY    32  27  80 NE13      29.95F WCI  22
GRANITE FALLS  CLOUDY    33  28  79 N13       29.93F WCI  24
CANBY          CLOUDY    32  26  78 N13       29.93F WCI  23
MARSHALL       CLOUDY    31  26  82 N14       29.92R WCI  21
REDWOOD FALLS  CLOUDY    32  24  72 N14       29.90F WCI  22
OLIVIA         CLOUDY    32  27  80 N13       29.91F WCI  22
PIPESTONE      CLOUDY    30  23  74 NE13G24   29.83F WCI  20
WINDOM         CLOUDY    32  27  80 N22       29.85F WCI  19
WORTHINGTON    FLURRIES  30  26  85 N21       29.82F WCI  17
JACKSON          N/A     32  28  86 N21       29.82F WCI  20
TRACY          CLOUDY    32  28  86 N14       29.89F WCI  22
SLAYTON        FLURRIES  29  26  87 N16G22    29.86S WCI  17
$$
MNZ065>067-074>077-082>085-091>093-232100-
   South Central Minnesota

CITY           SKY/WX    TMP DP  RH WIND       PRES   REMARKS
MANKATO          N/A     35  27  72 NE10      29.87F WCI  27
NEW ULM        CLOUDY    34  25  69 N14G21    29.87F WCI  24
ST JAMES       CLOUDY    34  28  80 N12       29.88S WCI  25
FAIRMONT       CLOUDY    33  28  81 N13G21    29.84S WCI  24
GLENCOE        CLOUDY    33  28  83 N10G20    29.90F WCI  25
FARIBAULT      CLOUDY    36  28  75 N12G18    29.88R
OWATONNA       CLOUDY    36  28  75 N15       29.85R
WASECA         CLOUDY    34  30  86 N16       29.86F WCI  23
ALBERT LEA     CLOUDY    37  32  81 NE16      29.82F
$$
MNZ078>079-086>088-094>096-232100-
   Southeast Minnesota

CITY           SKY/WX    TMP DP  RH WIND       PRES   REMARKS
ROCHESTER      CLOUDY    38  32  79 NE13      29.83R
RED WING       PTSUNNY   39  27  60 N7        29.86S
STANTON        CLOUDY    37  29  74 N14       29.86S
DODGE CENTER   CLOUDY    36  30  80 NE13      29.84R
WINONA         CLOUDY    41  30  65 E7        29.86R
AUSTIN         CLOUDY    37  32  81 NE9       29.81F
PRESTON        CLOUDY    39  31  72 NE14      29.81F
$$
ABBREVIATIONS USED IN REMARKS
   TC - TEMPERATURES IN CELSIUS
  WCI - WIND CHILL INDEX
   HX - HEAT INDEX
  VSB - VISIBILITY
$$




USA.gov is the U.S. government's official web portal to all federal, state and local government web resources and services.